FW0464 Weather Reports


time (UTC)temp
C
wind
direction
speed
KPH
gust
KPH
rain 1hr
cm
rain 24hr
cm
rain mn
cm
humidity
%
barometer
mb
20260504034536 12 360 17.7 32.2 0.00 0.00 0.00 42 1002.6
20260504033031 12 351 22.5 35.4 0.00 0.00 0.00 43 1002.6
20260504031531 12 355 19.3 33.8 0.00 0.00 0.00 43 1002.3
20260504030030 13 5 17.7 27.4 0.00 0.00 0.00 42 1001.9
20260504024530 14 355 20.9 30.6 0.00 0.00 0.00 41 1001.7
20260504023031 15 344 24.1 43.5 0.00 0.00 0.00 40 1001.4
20260504021534 15 355 30.6 64.4 0.00 0.00 0.00 39 1001.1
20260504020037 17 315 14.5 27.4 0.00 0.00 0.00 36 1000.2
20260504014536 17 300 14.5 37.0 0.00 0.00 0.00 35 1000.0
20260504013029 18 311 24.1 37.0 0.00 0.00 0.00 34 999.8
20260504011526 19 281 20.9 45.1 0.00 0.00 0.00 33 999.9
20260504010025 20 272 27.4 45.1 0.00 0.00 0.00 32 999.8
20260504004525 20 273 27.4 46.7 0.00 0.00 0.00 33 1000.0
20260504003028 20 267 25.7 51.5 0.00 0.00 0.00 33 1000.0
20260504001524 21 355 29.0 51.5 0.00 0.00 0.00 33 1000.0
20260504000023 21 294 29.0 49.9 0.00 0.00 0.00 33 1000.2
20260503234523 21 313 32.2 56.3 0.00 0.00 0.00 31 1000.1
20260503233023 22 294 30.6 54.7 0.00 0.00 0.00 27 1000.1
20260503231523 22 254 25.7 46.7 0.00 0.00 0.00 24 1000.2
20260503230022 22 253 25.7 45.1 0.00 0.00 0.00 23 1000.1
20260503224521 22 232 22.5 56.3 0.00 0.00 0.00 25 1000.2
20260503223020 22 248 29.0 56.3 0.00 0.00 0.00 26 1000.5
20260503221518 22 259 19.3 45.1 0.00 0.00 0.00 25 1000.8
20260503220017 22 271 25.7 51.5 0.00 0.00 0.00 25 1001.1
20260503214533 22 254 22.5 46.7 0.00 0.00 0.00 24 1001.5
20260503213012 22 257 37.0 59.5 0.00 0.00 0.00 27 1001.6
20260503211512 22 236 27.4 70.8 0.00 0.00 0.00 31 1002.0
20260503210008 21 252 41.8 61.2 0.00 0.00 0.00 34 1002.4
20260503204507 21 254 30.6 57.9 0.00 0.00 0.00 34 1002.8
20260503203002 21 246 35.4 48.3 0.00 0.00 0.00 33 1003.2
20260503201601 19 245 30.6 48.3 0.00 0.00 0.00 33 1003.4
20260503200115 20 256 22.5 43.5 0.00 0.00 0.00 29 1003.9
20260503194603 19 247 29.0 43.5 0.00 0.00 0.00 31 1004.1
20260503193103 19 233 32.2 46.7 0.00 0.00 0.00 35 1004.7
20260503191555 18 247 19.3 38.6 0.00 0.00 0.00 35 1005.2
20260503190051 18 259 32.2 48.3 0.00 0.00 0.00 33 1005.5
20260503184558 19 251 27.4 46.7 0.00 0.00 0.00 36 1005.6
20260503183047 18 254 29.0 51.5 0.00 0.00 0.00 35 1006.4
20260503181607 18 260 24.1 46.7 0.00 0.00 0.00 36 1006.7
20260503180056 18 242 29.0 48.3 0.00 0.00 0.00 38 1007.0
20260503174547 18 234 29.0 48.3 0.00 0.00 0.00 41 1007.1
20260503173052 18 266 32.2 49.9 0.00 0.00 0.00 41 1007.3
20260503171537 17 254 32.2 49.9 0.00 0.00 0.00 42 1007.6
20260503081536 6 211 9.7 11.3 0.00 0.00 0.00 59 1012.2
20260503071520 7 198 8.0 9.7 0.00 0.00 0.00 57 1012.5
20260503054514 10 157 3.2 8.0 0.00 0.00 0.00 47 1012.6
20260503053006 11 157 3.2 4.8 0.00 0.00 0.00 47 1012.7
20260503051508 11 151 1.6 4.8 0.00 0.00 0.00 47 1012.7
20260503050005 10 111 1.6 4.8 0.00 0.00 0.00 48 1012.9
20260503044504 10 341 0.0 1.6 0.00 0.00 0.00 50 1012.9
20260503043004 11 341 0.0 3.2 0.00 0.00 0.00 46 1013.0
20260503041503 11 341 0.0 3.2 0.00 0.00 0.00 46 1013.1
20260503040005 11 341 0.0 0.0 0.00 0.00 0.00 46 1013.2